Index of /20260410/WXO-DD/model_rdps/10km/00/037
Name Last modified Size Description
Parent Directory -
20260410T00Z_MSC_RDPS_AbsoluteVorticity_IsbL-0250_RLatLon0.09_PT037H.grib2 2026-04-10 02:59 598K
20260410T00Z_MSC_RDPS_AbsoluteVorticity_IsbL-0500_RLatLon0.09_PT037H.grib2 2026-04-10 02:59 684K
20260410T00Z_MSC_RDPS_AbsoluteVorticity_IsbL-0700_RLatLon0.09_PT037H.grib2 2026-04-10 02:59 618K
20260410T00Z_MSC_RDPS_AbsoluteVorticity_IsbL-0850_RLatLon0.09_PT037H.grib2 2026-04-10 02:59 789K
20260410T00Z_MSC_RDPS_AirTemp_AGL-120m_RLatLon0.09_PT037H.grib2 2026-04-10 02:59 383K
20260410T00Z_MSC_RDPS_AirTemp_AGL-2m_RLatLon0.09_PT037H.grib2 2026-04-10 02:59 638K
20260410T00Z_MSC_RDPS_AirTemp_AGL-40m_RLatLon0.09_PT037H.grib2 2026-04-10 02:59 417K
20260410T00Z_MSC_RDPS_AirTemp_AGL-80m_RLatLon0.09_PT037H.grib2 2026-04-10 02:59 393K
20260410T00Z_MSC_RDPS_AirTemp_IsbL-0001_RLatLon0.09_PT037H.grib2 2026-04-10 02:59 236K
20260410T00Z_MSC_RDPS_AirTemp_IsbL-0005_RLatLon0.09_PT037H.grib2 2026-04-10 02:59 262K
20260410T00Z_MSC_RDPS_AirTemp_IsbL-0010_RLatLon0.09_PT037H.grib2 2026-04-10 02:59 353K
20260410T00Z_MSC_RDPS_AirTemp_IsbL-0020_RLatLon0.09_PT037H.grib2 2026-04-10 02:59 374K
20260410T00Z_MSC_RDPS_AirTemp_IsbL-0030_RLatLon0.09_PT037H.grib2 2026-04-10 02:59 395K
20260410T00Z_MSC_RDPS_AirTemp_IsbL-0050_RLatLon0.09_PT037H.grib2 2026-04-10 02:59 334K
20260410T00Z_MSC_RDPS_AirTemp_IsbL-0100_RLatLon0.09_PT037H.grib2 2026-04-10 02:59 428K
20260410T00Z_MSC_RDPS_AirTemp_IsbL-0150_RLatLon0.09_PT037H.grib2 2026-04-10 02:59 417K
20260410T00Z_MSC_RDPS_AirTemp_IsbL-0175_RLatLon0.09_PT037H.grib2 2026-04-10 02:59 414K
20260410T00Z_MSC_RDPS_AirTemp_IsbL-0200_RLatLon0.09_PT037H.grib2 2026-04-10 02:59 412K
20260410T00Z_MSC_RDPS_AirTemp_IsbL-0225_RLatLon0.09_PT037H.grib2 2026-04-10 02:59 409K
20260410T00Z_MSC_RDPS_AirTemp_IsbL-0250_RLatLon0.09_PT037H.grib2 2026-04-10 02:59 415K
20260410T00Z_MSC_RDPS_AirTemp_IsbL-0275_RLatLon0.09_PT037H.grib2 2026-04-10 02:59 399K
20260410T00Z_MSC_RDPS_AirTemp_IsbL-0300_RLatLon0.09_PT037H.grib2 2026-04-10 02:59 406K
20260410T00Z_MSC_RDPS_AirTemp_IsbL-0350_RLatLon0.09_PT037H.grib2 2026-04-10 02:59 421K
20260410T00Z_MSC_RDPS_AirTemp_IsbL-0400_RLatLon0.09_PT037H.grib2 2026-04-10 02:59 390K
20260410T00Z_MSC_RDPS_AirTemp_IsbL-0450_RLatLon0.09_PT037H.grib2 2026-04-10 02:59 395K
20260410T00Z_MSC_RDPS_AirTemp_IsbL-0500_RLatLon0.09_PT037H.grib2 2026-04-10 02:59 407K
20260410T00Z_MSC_RDPS_AirTemp_IsbL-0550_RLatLon0.09_PT037H.grib2 2026-04-10 02:59 425K
20260410T00Z_MSC_RDPS_AirTemp_IsbL-0600_RLatLon0.09_PT037H.grib2 2026-04-10 02:59 341K
20260410T00Z_MSC_RDPS_AirTemp_IsbL-0650_RLatLon0.09_PT037H.grib2 2026-04-10 02:59 353K
20260410T00Z_MSC_RDPS_AirTemp_IsbL-0700_RLatLon0.09_PT037H.grib2 2026-04-10 02:59 374K
20260410T00Z_MSC_RDPS_AirTemp_IsbL-0750_RLatLon0.09_PT037H.grib2 2026-04-10 02:59 409K
20260410T00Z_MSC_RDPS_AirTemp_IsbL-0800_RLatLon0.09_PT037H.grib2 2026-04-10 02:59 460K
20260410T00Z_MSC_RDPS_AirTemp_IsbL-0850_RLatLon0.09_PT037H.grib2 2026-04-10 02:59 511K
20260410T00Z_MSC_RDPS_AirTemp_IsbL-0875_RLatLon0.09_PT037H.grib2 2026-04-10 02:59 525K
20260410T00Z_MSC_RDPS_AirTemp_IsbL-0900_RLatLon0.09_PT037H.grib2 2026-04-10 02:59 528K
20260410T00Z_MSC_RDPS_AirTemp_IsbL-0925_RLatLon0.09_PT037H.grib2 2026-04-10 02:59 521K
20260410T00Z_MSC_RDPS_AirTemp_IsbL-0950_RLatLon0.09_PT037H.grib2 2026-04-10 02:59 523K
20260410T00Z_MSC_RDPS_AirTemp_IsbL-0970_RLatLon0.09_PT037H.grib2 2026-04-10 02:59 523K
20260410T00Z_MSC_RDPS_AirTemp_IsbL-0985_RLatLon0.09_PT037H.grib2 2026-04-10 02:59 516K
20260410T00Z_MSC_RDPS_AirTemp_IsbL-1000_RLatLon0.09_PT037H.grib2 2026-04-10 02:59 515K
20260410T00Z_MSC_RDPS_AirTemp_IsbL-1015_RLatLon0.09_PT037H.grib2 2026-04-10 02:59 509K
20260410T00Z_MSC_RDPS_Albedo_Sfc_RLatLon0.09_PT037H.grib2 2026-04-10 02:59 163K
20260410T00Z_MSC_RDPS_CAPE_Sfc_RLatLon0.09_PT037H.grib2 2026-04-10 02:59 1.6M
20260410T00Z_MSC_RDPS_CIN_Sfc_RLatLon0.09_PT037H.grib2 2026-04-10 02:59 1.1M
20260410T00Z_MSC_RDPS_CloudWater_EAtm_RLatLon0.09_PT037H.grib2 2026-04-10 02:59 212K
20260410T00Z_MSC_RDPS_ConvectivePrecip-Accum_Sfc_RLatLon0.09_PT037H.grib2 2026-04-10 02:59 1.0M
20260410T00Z_MSC_RDPS_DewPointDepression_AGL-2m_RLatLon0.09_PT037H.grib2 2026-04-10 02:59 390K
20260410T00Z_MSC_RDPS_DewPointDepression_IsbL-0001_RLatLon0.09_PT037H.grib2 2026-04-10 02:59 193
20260410T00Z_MSC_RDPS_DewPointDepression_IsbL-0005_RLatLon0.09_PT037H.grib2 2026-04-10 02:59 193
20260410T00Z_MSC_RDPS_DewPointDepression_IsbL-0010_RLatLon0.09_PT037H.grib2 2026-04-10 02:59 193
20260410T00Z_MSC_RDPS_DewPointDepression_IsbL-0020_RLatLon0.09_PT037H.grib2 2026-04-10 02:59 1.3K
20260410T00Z_MSC_RDPS_DewPointDepression_IsbL-0030_RLatLon0.09_PT037H.grib2 2026-04-10 02:59 17K
20260410T00Z_MSC_RDPS_DewPointDepression_IsbL-0050_RLatLon0.09_PT037H.grib2 2026-04-10 02:59 110K
20260410T00Z_MSC_RDPS_DewPointDepression_IsbL-0100_RLatLon0.09_PT037H.grib2 2026-04-10 02:59 128K
20260410T00Z_MSC_RDPS_DewPointDepression_IsbL-0150_RLatLon0.09_PT037H.grib2 2026-04-10 02:59 148K
20260410T00Z_MSC_RDPS_DewPointDepression_IsbL-0175_RLatLon0.09_PT037H.grib2 2026-04-10 02:59 177K
20260410T00Z_MSC_RDPS_DewPointDepression_IsbL-0200_RLatLon0.09_PT037H.grib2 2026-04-10 02:59 212K
20260410T00Z_MSC_RDPS_DewPointDepression_IsbL-0225_RLatLon0.09_PT037H.grib2 2026-04-10 02:59 245K
20260410T00Z_MSC_RDPS_DewPointDepression_IsbL-0250_RLatLon0.09_PT037H.grib2 2026-04-10 02:59 283K
20260410T00Z_MSC_RDPS_DewPointDepression_IsbL-0275_RLatLon0.09_PT037H.grib2 2026-04-10 02:59 294K
20260410T00Z_MSC_RDPS_DewPointDepression_IsbL-0300_RLatLon0.09_PT037H.grib2 2026-04-10 02:59 315K
20260410T00Z_MSC_RDPS_DewPointDepression_IsbL-0350_RLatLon0.09_PT037H.grib2 2026-04-10 02:59 322K
20260410T00Z_MSC_RDPS_DewPointDepression_IsbL-0400_RLatLon0.09_PT037H.grib2 2026-04-10 02:59 331K
20260410T00Z_MSC_RDPS_DewPointDepression_IsbL-0450_RLatLon0.09_PT037H.grib2 2026-04-10 02:59 341K
20260410T00Z_MSC_RDPS_DewPointDepression_IsbL-0500_RLatLon0.09_PT037H.grib2 2026-04-10 02:59 355K
20260410T00Z_MSC_RDPS_DewPointDepression_IsbL-0550_RLatLon0.09_PT037H.grib2 2026-04-10 02:59 365K
20260410T00Z_MSC_RDPS_DewPointDepression_IsbL-0600_RLatLon0.09_PT037H.grib2 2026-04-10 02:59 372K
20260410T00Z_MSC_RDPS_DewPointDepression_IsbL-0650_RLatLon0.09_PT037H.grib2 2026-04-10 02:59 371K
20260410T00Z_MSC_RDPS_DewPointDepression_IsbL-0700_RLatLon0.09_PT037H.grib2 2026-04-10 02:59 376K
20260410T00Z_MSC_RDPS_DewPointDepression_IsbL-0750_RLatLon0.09_PT037H.grib2 2026-04-10 02:59 398K
20260410T00Z_MSC_RDPS_DewPointDepression_IsbL-0800_RLatLon0.09_PT037H.grib2 2026-04-10 02:59 438K
20260410T00Z_MSC_RDPS_DewPointDepression_IsbL-0850_RLatLon0.09_PT037H.grib2 2026-04-10 02:59 471K
20260410T00Z_MSC_RDPS_DewPointDepression_IsbL-0875_RLatLon0.09_PT037H.grib2 2026-04-10 02:59 471K
20260410T00Z_MSC_RDPS_DewPointDepression_IsbL-0900_RLatLon0.09_PT037H.grib2 2026-04-10 02:59 457K
20260410T00Z_MSC_RDPS_DewPointDepression_IsbL-0925_RLatLon0.09_PT037H.grib2 2026-04-10 02:59 446K
20260410T00Z_MSC_RDPS_DewPointDepression_IsbL-0950_RLatLon0.09_PT037H.grib2 2026-04-10 02:59 439K
20260410T00Z_MSC_RDPS_DewPointDepression_IsbL-0970_RLatLon0.09_PT037H.grib2 2026-04-10 02:59 435K
20260410T00Z_MSC_RDPS_DewPointDepression_IsbL-0985_RLatLon0.09_PT037H.grib2 2026-04-10 02:59 432K
20260410T00Z_MSC_RDPS_DewPointDepression_IsbL-1000_RLatLon0.09_PT037H.grib2 2026-04-10 02:59 427K
20260410T00Z_MSC_RDPS_DewPointDepression_IsbL-1015_RLatLon0.09_PT037H.grib2 2026-04-10 02:59 419K
20260410T00Z_MSC_RDPS_DewPoint_AGL-2m_RLatLon0.09_PT037H.grib2 2026-04-10 02:59 311K
20260410T00Z_MSC_RDPS_DownwardLongwaveRadiationFlux-Accum_Sfc_RLatLon0.09_PT037H.grib2 2026-04-10 02:59 364K
20260410T00Z_MSC_RDPS_DownwardShortwaveRadiationFlux-Accum_NTAtm_RLatLon0.09_PT037H.grib2 2026-04-10 02:59 141K
20260410T00Z_MSC_RDPS_DownwardShortwaveRadiationFlux-Accum_Sfc_RLatLon0.09_PT037H.grib2 2026-04-10 02:59 638K
20260410T00Z_MSC_RDPS_FreezingRain-Accum1h_Sfc_RLatLon0.09_PT037H.grib2 2026-04-10 02:59 25K
20260410T00Z_MSC_RDPS_FreezingRain-Accum_Sfc_RLatLon0.09_PT037H.grib2 2026-04-10 02:59 132K
20260410T00Z_MSC_RDPS_GeopotentialHeight_IsbL-0001_RLatLon0.09_PT037H.grib2 2026-04-10 02:59 245K
20260410T00Z_MSC_RDPS_GeopotentialHeight_IsbL-0005_RLatLon0.09_PT037H.grib2 2026-04-10 02:59 271K
20260410T00Z_MSC_RDPS_GeopotentialHeight_IsbL-0010_RLatLon0.09_PT037H.grib2 2026-04-10 02:59 240K
20260410T00Z_MSC_RDPS_GeopotentialHeight_IsbL-0020_RLatLon0.09_PT037H.grib2 2026-04-10 02:59 240K
20260410T00Z_MSC_RDPS_GeopotentialHeight_IsbL-0030_RLatLon0.09_PT037H.grib2 2026-04-10 02:59 242K
20260410T00Z_MSC_RDPS_GeopotentialHeight_IsbL-0050_RLatLon0.09_PT037H.grib2 2026-04-10 02:59 273K
20260410T00Z_MSC_RDPS_GeopotentialHeight_IsbL-0100_RLatLon0.09_PT037H.grib2 2026-04-10 02:59 223K
20260410T00Z_MSC_RDPS_GeopotentialHeight_IsbL-0150_RLatLon0.09_PT037H.grib2 2026-04-10 02:59 263K
20260410T00Z_MSC_RDPS_GeopotentialHeight_IsbL-0175_RLatLon0.09_PT037H.grib2 2026-04-10 02:59 266K
20260410T00Z_MSC_RDPS_GeopotentialHeight_IsbL-0200_RLatLon0.09_PT037H.grib2 2026-04-10 02:59 268K
20260410T00Z_MSC_RDPS_GeopotentialHeight_IsbL-0225_RLatLon0.09_PT037H.grib2 2026-04-10 02:59 268K
20260410T00Z_MSC_RDPS_GeopotentialHeight_IsbL-0250_RLatLon0.09_PT037H.grib2 2026-04-10 02:59 268K
20260410T00Z_MSC_RDPS_GeopotentialHeight_IsbL-0275_RLatLon0.09_PT037H.grib2 2026-04-10 02:59 267K
20260410T00Z_MSC_RDPS_GeopotentialHeight_IsbL-0300_RLatLon0.09_PT037H.grib2 2026-04-10 02:59 265K
20260410T00Z_MSC_RDPS_GeopotentialHeight_IsbL-0350_RLatLon0.09_PT037H.grib2 2026-04-10 02:59 259K
20260410T00Z_MSC_RDPS_GeopotentialHeight_IsbL-0400_RLatLon0.09_PT037H.grib2 2026-04-10 02:59 256K
20260410T00Z_MSC_RDPS_GeopotentialHeight_IsbL-0450_RLatLon0.09_PT037H.grib2 2026-04-10 02:59 221K
20260410T00Z_MSC_RDPS_GeopotentialHeight_IsbL-0500_RLatLon0.09_PT037H.grib2 2026-04-10 02:59 218K
20260410T00Z_MSC_RDPS_GeopotentialHeight_IsbL-0550_RLatLon0.09_PT037H.grib2 2026-04-10 02:59 287K
20260410T00Z_MSC_RDPS_GeopotentialHeight_IsbL-0600_RLatLon0.09_PT037H.grib2 2026-04-10 02:59 283K
20260410T00Z_MSC_RDPS_GeopotentialHeight_IsbL-0650_RLatLon0.09_PT037H.grib2 2026-04-10 02:59 282K
20260410T00Z_MSC_RDPS_GeopotentialHeight_IsbL-0700_RLatLon0.09_PT037H.grib2 2026-04-10 02:59 281K
20260410T00Z_MSC_RDPS_GeopotentialHeight_IsbL-0750_RLatLon0.09_PT037H.grib2 2026-04-10 02:59 255K
20260410T00Z_MSC_RDPS_GeopotentialHeight_IsbL-0800_RLatLon0.09_PT037H.grib2 2026-04-10 02:59 264K
20260410T00Z_MSC_RDPS_GeopotentialHeight_IsbL-0850_RLatLon0.09_PT037H.grib2 2026-04-10 02:59 274K
20260410T00Z_MSC_RDPS_GeopotentialHeight_IsbL-0875_RLatLon0.09_PT037H.grib2 2026-04-10 02:59 276K
20260410T00Z_MSC_RDPS_GeopotentialHeight_IsbL-0900_RLatLon0.09_PT037H.grib2 2026-04-10 02:59 278K
20260410T00Z_MSC_RDPS_GeopotentialHeight_IsbL-0925_RLatLon0.09_PT037H.grib2 2026-04-10 02:59 280K
20260410T00Z_MSC_RDPS_GeopotentialHeight_IsbL-0950_RLatLon0.09_PT037H.grib2 2026-04-10 02:59 282K
20260410T00Z_MSC_RDPS_GeopotentialHeight_IsbL-0970_RLatLon0.09_PT037H.grib2 2026-04-10 02:59 286K
20260410T00Z_MSC_RDPS_GeopotentialHeight_IsbL-0985_RLatLon0.09_PT037H.grib2 2026-04-10 02:59 292K
20260410T00Z_MSC_RDPS_GeopotentialHeight_IsbL-1000_RLatLon0.09_PT037H.grib2 2026-04-10 02:59 302K
20260410T00Z_MSC_RDPS_GeopotentialHeight_IsbL-1015_RLatLon0.09_PT037H.grib2 2026-04-10 02:59 313K
20260410T00Z_MSC_RDPS_Humidex_Sfc_RLatLon0.09_PT037H.grib2 2026-04-10 02:59 2.4M
20260410T00Z_MSC_RDPS_IcePellets-Accum1h_Sfc_RLatLon0.09_PT037H.grib2 2026-04-10 02:59 4.3K
20260410T00Z_MSC_RDPS_IcePellets-Accum_Sfc_RLatLon0.09_PT037H.grib2 2026-04-10 02:59 16K
20260410T00Z_MSC_RDPS_KIndex_Sfc_RLatLon0.09_PT037H.grib2 2026-04-10 02:59 2.5M
20260410T00Z_MSC_RDPS_LatentHeatNetFlux_Sfc_RLatLon0.09_PT037H.grib2 2026-04-10 02:59 417K
20260410T00Z_MSC_RDPS_LiftedIndex-MU-VT_IsbL-0500_RLatLon0.09_PT037H.grib2 2026-04-10 02:59 2.4M
20260410T00Z_MSC_RDPS_NetLongwaveRadiationFlux-Accum_Sfc_RLatLon0.09_PT037H.grib2 2026-04-10 02:59 489K
20260410T00Z_MSC_RDPS_NetShortwaveRadiationFlux-Accum_Sfc_RLatLon0.09_PT037H.grib2 2026-04-10 02:59 646K
20260410T00Z_MSC_RDPS_PlanetaryBoundaryLayerHeight_Sfc_RLatLon0.09_PT037H.grib2 2026-04-10 02:59 1.1M
20260410T00Z_MSC_RDPS_Precip-Accum1h_Sfc_RLatLon0.09_PT037H.grib2 2026-04-10 02:59 1.3M
20260410T00Z_MSC_RDPS_Precip-Accum_Sfc_RLatLon0.09_PT037H.grib2 2026-04-10 02:59 2.0M
20260410T00Z_MSC_RDPS_PrecipRate_Sfc_RLatLon0.09_PT037H.grib2 2026-04-10 02:59 191K
20260410T00Z_MSC_RDPS_PrecipType-Instant_Sfc_RLatLon0.09_PT037H.grib2 2026-04-10 02:59 620K
20260410T00Z_MSC_RDPS_Pressure-Trend3h_Sfc_RLatLon0.09_PT037H.grib2 2026-04-10 02:59 1.2M
20260410T00Z_MSC_RDPS_Pressure_MSL_RLatLon0.09_PT037H.grib2 2026-04-10 02:59 327K
20260410T00Z_MSC_RDPS_Pressure_PVU-1.5_RLatLon0.09_PT037H.grib2 2026-04-10 02:59 2.3M
20260410T00Z_MSC_RDPS_Pressure_PVU-1_RLatLon0.09_PT037H.grib2 2026-04-10 02:59 2.4M
20260410T00Z_MSC_RDPS_Pressure_PVU-2_RLatLon0.09_PT037H.grib2 2026-04-10 02:59 2.4M
20260410T00Z_MSC_RDPS_Pressure_Sfc_RLatLon0.09_PT037H.grib2 2026-04-10 02:59 503K
20260410T00Z_MSC_RDPS_RadiativeTemp_Sfc_RLatLon0.09_PT037H.grib2 2026-04-10 02:59 303K
20260410T00Z_MSC_RDPS_Rain-Accum1h_Sfc_RLatLon0.09_PT037H.grib2 2026-04-10 02:59 650K
20260410T00Z_MSC_RDPS_Rain-Accum_Sfc_RLatLon0.09_PT037H.grib2 2026-04-10 02:59 1.5M
20260410T00Z_MSC_RDPS_RelativeHumidity_AGL-2m_RLatLon0.09_PT037H.grib2 2026-04-10 02:59 1.0M
20260410T00Z_MSC_RDPS_RelativeHumidity_IsbL-0010_RLatLon0.09_PT037H.grib2 2026-04-10 02:59 437K
20260410T00Z_MSC_RDPS_RelativeHumidity_IsbL-0020_RLatLon0.09_PT037H.grib2 2026-04-10 02:59 411K
20260410T00Z_MSC_RDPS_RelativeHumidity_IsbL-0030_RLatLon0.09_PT037H.grib2 2026-04-10 02:59 377K
20260410T00Z_MSC_RDPS_RelativeHumidity_IsbL-0050_RLatLon0.09_PT037H.grib2 2026-04-10 02:59 465K
20260410T00Z_MSC_RDPS_RelativeHumidity_IsbL-0100_RLatLon0.09_PT037H.grib2 2026-04-10 02:59 261K
20260410T00Z_MSC_RDPS_RelativeHumidity_IsbL-0150_RLatLon0.09_PT037H.grib2 2026-04-10 02:59 374K
20260410T00Z_MSC_RDPS_RelativeHumidity_IsbL-0175_RLatLon0.09_PT037H.grib2 2026-04-10 02:59 459K
20260410T00Z_MSC_RDPS_RelativeHumidity_IsbL-0200_RLatLon0.09_PT037H.grib2 2026-04-10 02:59 539K
20260410T00Z_MSC_RDPS_RelativeHumidity_IsbL-0225_RLatLon0.09_PT037H.grib2 2026-04-10 02:59 603K
20260410T00Z_MSC_RDPS_RelativeHumidity_IsbL-0250_RLatLon0.09_PT037H.grib2 2026-04-10 02:59 665K
20260410T00Z_MSC_RDPS_RelativeHumidity_IsbL-0275_RLatLon0.09_PT037H.grib2 2026-04-10 02:59 685K
20260410T00Z_MSC_RDPS_RelativeHumidity_IsbL-0300_RLatLon0.09_PT037H.grib2 2026-04-10 02:59 729K
20260410T00Z_MSC_RDPS_RelativeHumidity_IsbL-0350_RLatLon0.09_PT037H.grib2 2026-04-10 02:59 753K
20260410T00Z_MSC_RDPS_RelativeHumidity_IsbL-0400_RLatLon0.09_PT037H.grib2 2026-04-10 02:59 770K
20260410T00Z_MSC_RDPS_RelativeHumidity_IsbL-0450_RLatLon0.09_PT037H.grib2 2026-04-10 02:59 784K
20260410T00Z_MSC_RDPS_RelativeHumidity_IsbL-0500_RLatLon0.09_PT037H.grib2 2026-04-10 02:59 795K
20260410T00Z_MSC_RDPS_RelativeHumidity_IsbL-0550_RLatLon0.09_PT037H.grib2 2026-04-10 02:59 810K
20260410T00Z_MSC_RDPS_RelativeHumidity_IsbL-0600_RLatLon0.09_PT037H.grib2 2026-04-10 02:59 828K
20260410T00Z_MSC_RDPS_RelativeHumidity_IsbL-0650_RLatLon0.09_PT037H.grib2 2026-04-10 02:59 836K
20260410T00Z_MSC_RDPS_RelativeHumidity_IsbL-0700_RLatLon0.09_PT037H.grib2 2026-04-10 02:59 855K
20260410T00Z_MSC_RDPS_RelativeHumidity_IsbL-0750_RLatLon0.09_PT037H.grib2 2026-04-10 02:59 909K
20260410T00Z_MSC_RDPS_RelativeHumidity_IsbL-0800_RLatLon0.09_PT037H.grib2 2026-04-10 02:59 1.0M
20260410T00Z_MSC_RDPS_RelativeHumidity_IsbL-0850_RLatLon0.09_PT037H.grib2 2026-04-10 02:59 1.0M
20260410T00Z_MSC_RDPS_RelativeHumidity_IsbL-0875_RLatLon0.09_PT037H.grib2 2026-04-10 02:59 1.1M
20260410T00Z_MSC_RDPS_RelativeHumidity_IsbL-0900_RLatLon0.09_PT037H.grib2 2026-04-10 02:59 1.1M
20260410T00Z_MSC_RDPS_RelativeHumidity_IsbL-0925_RLatLon0.09_PT037H.grib2 2026-04-10 02:59 1.1M
20260410T00Z_MSC_RDPS_RelativeHumidity_IsbL-0950_RLatLon0.09_PT037H.grib2 2026-04-10 02:59 1.1M
20260410T00Z_MSC_RDPS_RelativeHumidity_IsbL-0970_RLatLon0.09_PT037H.grib2 2026-04-10 02:59 1.1M
20260410T00Z_MSC_RDPS_RelativeHumidity_IsbL-0985_RLatLon0.09_PT037H.grib2 2026-04-10 02:59 1.0M
20260410T00Z_MSC_RDPS_RelativeHumidity_IsbL-1000_RLatLon0.09_PT037H.grib2 2026-04-10 02:59 1.0M
20260410T00Z_MSC_RDPS_RelativeHumidity_IsbL-1015_RLatLon0.09_PT037H.grib2 2026-04-10 02:59 1.0M
20260410T00Z_MSC_RDPS_Runoff-Accum_Sfc_RLatLon0.09_PT037H.grib2 2026-04-10 02:59 42K
20260410T00Z_MSC_RDPS_SWEATIndex_Sfc_RLatLon0.09_PT037H.grib2 2026-04-10 02:59 2.4M
20260410T00Z_MSC_RDPS_SeeingIndex_EAtm_RLatLon0.09_PT037H.grib2 2026-04-10 02:59 1.0M
20260410T00Z_MSC_RDPS_SensibleHeatNetFlux_Sfc_RLatLon0.09_PT037H.grib2 2026-04-10 02:59 316K
20260410T00Z_MSC_RDPS_ShowalterIndex_IsbL-0500_RLatLon0.09_PT037H.grib2 2026-04-10 02:59 2.6M
20260410T00Z_MSC_RDPS_SkyTransparencyIndex_EAtm_RLatLon0.09_PT037H.grib2 2026-04-10 02:59 713K
20260410T00Z_MSC_RDPS_Snow-Accum1h_Sfc_RLatLon0.09_PT037H.grib2 2026-04-10 02:59 508K
20260410T00Z_MSC_RDPS_Snow-Accum_Sfc_RLatLon0.09_PT037H.grib2 2026-04-10 02:59 853K
20260410T00Z_MSC_RDPS_SnowDensity_Sfc_RLatLon0.09_PT037H.grib2 2026-04-10 02:59 177K
20260410T00Z_MSC_RDPS_SnowDepth_Sfc_RLatLon0.09_PT037H.grib2 2026-04-10 02:59 726K
20260410T00Z_MSC_RDPS_SoilTemp_DBS-0to10cm_RLatLon0.09_PT037H.grib2 2026-04-10 02:59 230K
20260410T00Z_MSC_RDPS_SoilTemp_Sfc_RLatLon0.09_PT037H.grib2 2026-04-10 02:59 275K
20260410T00Z_MSC_RDPS_SoilVolumetricIceContent_Sfc_RLatLon0.09_PT037H.grib2 2026-04-10 02:59 180K
20260410T00Z_MSC_RDPS_SoilVolumetricWaterContent_DBS-0to10cm_RLatLon0.09_PT037H.grib2 2026-04-10 02:59 237K
20260410T00Z_MSC_RDPS_SoilVolumetricWaterContent_DBS-0to1cm_RLatLon0.09_PT037H.grib2 2026-04-10 02:59 337K
20260410T00Z_MSC_RDPS_SpecificHumidity_AGL-120m_RLatLon0.09_PT037H.grib2 2026-04-10 02:59 476K
20260410T00Z_MSC_RDPS_SpecificHumidity_AGL-2m_RLatLon0.09_PT037H.grib2 2026-04-10 02:59 634K
20260410T00Z_MSC_RDPS_SpecificHumidity_AGL-40m_RLatLon0.09_PT037H.grib2 2026-04-10 02:59 482K
20260410T00Z_MSC_RDPS_SpecificHumidity_AGL-80m_RLatLon0.09_PT037H.grib2 2026-04-10 02:59 478K
20260410T00Z_MSC_RDPS_SpecificHumidity_IsbL-0001_RLatLon0.09_PT037H.grib2 2026-04-10 02:59 311K
20260410T00Z_MSC_RDPS_SpecificHumidity_IsbL-0005_RLatLon0.09_PT037H.grib2 2026-04-10 02:59 337K
20260410T00Z_MSC_RDPS_SpecificHumidity_IsbL-0010_RLatLon0.09_PT037H.grib2 2026-04-10 02:59 357K
20260410T00Z_MSC_RDPS_SpecificHumidity_IsbL-0020_RLatLon0.09_PT037H.grib2 2026-04-10 02:59 369K
20260410T00Z_MSC_RDPS_SpecificHumidity_IsbL-0030_RLatLon0.09_PT037H.grib2 2026-04-10 02:59 376K
20260410T00Z_MSC_RDPS_SpecificHumidity_IsbL-0050_RLatLon0.09_PT037H.grib2 2026-04-10 02:59 473K
20260410T00Z_MSC_RDPS_SpecificHumidity_IsbL-0100_RLatLon0.09_PT037H.grib2 2026-04-10 02:59 378K
20260410T00Z_MSC_RDPS_SpecificHumidity_IsbL-0150_RLatLon0.09_PT037H.grib2 2026-04-10 02:59 427K
20260410T00Z_MSC_RDPS_SpecificHumidity_IsbL-0175_RLatLon0.09_PT037H.grib2 2026-04-10 02:59 413K
20260410T00Z_MSC_RDPS_SpecificHumidity_IsbL-0200_RLatLon0.09_PT037H.grib2 2026-04-10 02:59 425K
20260410T00Z_MSC_RDPS_SpecificHumidity_IsbL-0225_RLatLon0.09_PT037H.grib2 2026-04-10 02:59 427K
20260410T00Z_MSC_RDPS_SpecificHumidity_IsbL-0250_RLatLon0.09_PT037H.grib2 2026-04-10 02:59 531K
20260410T00Z_MSC_RDPS_SpecificHumidity_IsbL-0275_RLatLon0.09_PT037H.grib2 2026-04-10 02:59 447K
20260410T00Z_MSC_RDPS_SpecificHumidity_IsbL-0300_RLatLon0.09_PT037H.grib2 2026-04-10 02:59 514K
20260410T00Z_MSC_RDPS_SpecificHumidity_IsbL-0350_RLatLon0.09_PT037H.grib2 2026-04-10 02:59 508K
20260410T00Z_MSC_RDPS_SpecificHumidity_IsbL-0400_RLatLon0.09_PT037H.grib2 2026-04-10 02:59 491K
20260410T00Z_MSC_RDPS_SpecificHumidity_IsbL-0450_RLatLon0.09_PT037H.grib2 2026-04-10 02:59 550K
20260410T00Z_MSC_RDPS_SpecificHumidity_IsbL-0500_RLatLon0.09_PT037H.grib2 2026-04-10 02:59 493K
20260410T00Z_MSC_RDPS_SpecificHumidity_IsbL-0550_RLatLon0.09_PT037H.grib2 2026-04-10 02:59 547K
20260410T00Z_MSC_RDPS_SpecificHumidity_IsbL-0600_RLatLon0.09_PT037H.grib2 2026-04-10 02:59 612K
20260410T00Z_MSC_RDPS_SpecificHumidity_IsbL-0650_RLatLon0.09_PT037H.grib2 2026-04-10 02:59 524K
20260410T00Z_MSC_RDPS_SpecificHumidity_IsbL-0700_RLatLon0.09_PT037H.grib2 2026-04-10 02:59 561K
20260410T00Z_MSC_RDPS_SpecificHumidity_IsbL-0750_RLatLon0.09_PT037H.grib2 2026-04-10 02:59 616K
20260410T00Z_MSC_RDPS_SpecificHumidity_IsbL-0800_RLatLon0.09_PT037H.grib2 2026-04-10 02:59 693K
20260410T00Z_MSC_RDPS_SpecificHumidity_IsbL-0850_RLatLon0.09_PT037H.grib2 2026-04-10 02:59 779K
20260410T00Z_MSC_RDPS_SpecificHumidity_IsbL-0875_RLatLon0.09_PT037H.grib2 2026-04-10 02:59 803K
20260410T00Z_MSC_RDPS_SpecificHumidity_IsbL-0900_RLatLon0.09_PT037H.grib2 2026-04-10 02:59 812K
20260410T00Z_MSC_RDPS_SpecificHumidity_IsbL-0925_RLatLon0.09_PT037H.grib2 2026-04-10 02:59 815K
20260410T00Z_MSC_RDPS_SpecificHumidity_IsbL-0950_RLatLon0.09_PT037H.grib2 2026-04-10 02:59 817K
20260410T00Z_MSC_RDPS_SpecificHumidity_IsbL-0970_RLatLon0.09_PT037H.grib2 2026-04-10 02:59 812K
20260410T00Z_MSC_RDPS_SpecificHumidity_IsbL-0985_RLatLon0.09_PT037H.grib2 2026-04-10 02:59 664K
20260410T00Z_MSC_RDPS_SpecificHumidity_IsbL-1000_RLatLon0.09_PT037H.grib2 2026-04-10 02:59 657K
20260410T00Z_MSC_RDPS_SpecificHumidity_IsbL-1015_RLatLon0.09_PT037H.grib2 2026-04-10 02:59 648K
20260410T00Z_MSC_RDPS_SpecificHumidity_Sfc_RLatLon0.09_PT037H.grib2 2026-04-10 02:59 279K
20260410T00Z_MSC_RDPS_StormRelativeHelicity_EtaL-10000_RLatLon0.09_PT037H.grib2 2026-04-10 02:59 1.1M
20260410T00Z_MSC_RDPS_StormSeverityIndex_EtaL-10000_RLatLon0.09_PT037H.grib2 2026-04-10 02:59 1.2M
20260410T00Z_MSC_RDPS_Thickness_IsbL-0850to0700_RLatLon0.09_PT037H.grib2 2026-04-10 02:59 197K
20260410T00Z_MSC_RDPS_Thickness_IsbL-1000to0500_RLatLon0.09_PT037H.grib2 2026-04-10 02:59 137K
20260410T00Z_MSC_RDPS_Thickness_IsbL-1000to0850_RLatLon0.09_PT037H.grib2 2026-04-10 02:59 185K
20260410T00Z_MSC_RDPS_TotalCloudCover_Sfc_RLatLon0.09_PT037H.grib2 2026-04-10 02:59 669K
20260410T00Z_MSC_RDPS_TotalTotalsIndex_Sfc_RLatLon0.09_PT037H.grib2 2026-04-10 02:59 2.4M
20260410T00Z_MSC_RDPS_UVIndex-ClearSky_Sfc_RLatLon0.09_PT037H.grib2 2026-04-10 02:59 163K
20260410T00Z_MSC_RDPS_UVIndex_Sfc_RLatLon0.09_PT037H.grib2 2026-04-10 02:59 366K
20260410T00Z_MSC_RDPS_UpwardLongwaveRadiationFlux_NTAtm_RLatLon0.09_PT037H.grib2 2026-04-10 02:59 476K
20260410T00Z_MSC_RDPS_UpwardShortwaveRadiationFlux_NTAtm_RLatLon0.09_PT037H.grib2 2026-04-10 02:59 332K
20260410T00Z_MSC_RDPS_VerticalVelocity_IsbL-0250_RLatLon0.09_PT037H.grib2 2026-04-10 02:59 726K
20260410T00Z_MSC_RDPS_VerticalVelocity_IsbL-0500_RLatLon0.09_PT037H.grib2 2026-04-10 02:59 544K
20260410T00Z_MSC_RDPS_VerticalVelocity_IsbL-0700_RLatLon0.09_PT037H.grib2 2026-04-10 02:59 623K
20260410T00Z_MSC_RDPS_VerticalVelocity_IsbL-0850_RLatLon0.09_PT037H.grib2 2026-04-10 02:59 695K
20260410T00Z_MSC_RDPS_VerticalWindShear_EtaL-6500_RLatLon0.09_PT037H.grib2 2026-04-10 02:59 1.2M
20260410T00Z_MSC_RDPS_WindChill_Sfc_RLatLon0.09_PT037H.grib2 2026-04-10 02:59 1.1M
20260410T00Z_MSC_RDPS_WindDir_AGL-10m_RLatLon0.09_PT037H.grib2 2026-04-10 02:59 953K
20260410T00Z_MSC_RDPS_WindDir_AGL-120m_RLatLon0.09_PT037H.grib2 2026-04-10 02:59 591K
20260410T00Z_MSC_RDPS_WindDir_AGL-40m_RLatLon0.09_PT037H.grib2 2026-04-10 02:59 620K
20260410T00Z_MSC_RDPS_WindDir_AGL-80m_RLatLon0.09_PT037H.grib2 2026-04-10 02:59 601K
20260410T00Z_MSC_RDPS_WindDir_IsbL-0001_RLatLon0.09_PT037H.grib2 2026-04-10 02:59 262K
20260410T00Z_MSC_RDPS_WindDir_IsbL-0005_RLatLon0.09_PT037H.grib2 2026-04-10 02:59 317K
20260410T00Z_MSC_RDPS_WindDir_IsbL-0010_RLatLon0.09_PT037H.grib2 2026-04-10 02:59 346K
20260410T00Z_MSC_RDPS_WindDir_IsbL-0020_RLatLon0.09_PT037H.grib2 2026-04-10 02:59 383K
20260410T00Z_MSC_RDPS_WindDir_IsbL-0030_RLatLon0.09_PT037H.grib2 2026-04-10 02:59 365K
20260410T00Z_MSC_RDPS_WindDir_IsbL-0050_RLatLon0.09_PT037H.grib2 2026-04-10 02:59 390K
20260410T00Z_MSC_RDPS_WindDir_IsbL-0100_RLatLon0.09_PT037H.grib2 2026-04-10 02:59 380K
20260410T00Z_MSC_RDPS_WindDir_IsbL-0150_RLatLon0.09_PT037H.grib2 2026-04-10 02:59 367K
20260410T00Z_MSC_RDPS_WindDir_IsbL-0175_RLatLon0.09_PT037H.grib2 2026-04-10 02:59 391K
20260410T00Z_MSC_RDPS_WindDir_IsbL-0200_RLatLon0.09_PT037H.grib2 2026-04-10 02:59 401K
20260410T00Z_MSC_RDPS_WindDir_IsbL-0225_RLatLon0.09_PT037H.grib2 2026-04-10 02:59 404K
20260410T00Z_MSC_RDPS_WindDir_IsbL-0250_RLatLon0.09_PT037H.grib2 2026-04-10 02:59 409K
20260410T00Z_MSC_RDPS_WindDir_IsbL-0275_RLatLon0.09_PT037H.grib2 2026-04-10 02:59 437K
20260410T00Z_MSC_RDPS_WindDir_IsbL-0300_RLatLon0.09_PT037H.grib2 2026-04-10 02:59 440K
20260410T00Z_MSC_RDPS_WindDir_IsbL-0350_RLatLon0.09_PT037H.grib2 2026-04-10 02:59 471K
20260410T00Z_MSC_RDPS_WindDir_IsbL-0400_RLatLon0.09_PT037H.grib2 2026-04-10 02:59 509K
20260410T00Z_MSC_RDPS_WindDir_IsbL-0450_RLatLon0.09_PT037H.grib2 2026-04-10 02:59 533K
20260410T00Z_MSC_RDPS_WindDir_IsbL-0500_RLatLon0.09_PT037H.grib2 2026-04-10 02:59 547K
20260410T00Z_MSC_RDPS_WindDir_IsbL-0550_RLatLon0.09_PT037H.grib2 2026-04-10 02:59 555K
20260410T00Z_MSC_RDPS_WindDir_IsbL-0600_RLatLon0.09_PT037H.grib2 2026-04-10 02:59 578K
20260410T00Z_MSC_RDPS_WindDir_IsbL-0650_RLatLon0.09_PT037H.grib2 2026-04-10 02:59 617K
20260410T00Z_MSC_RDPS_WindDir_IsbL-0700_RLatLon0.09_PT037H.grib2 2026-04-10 02:59 648K
20260410T00Z_MSC_RDPS_WindDir_IsbL-0750_RLatLon0.09_PT037H.grib2 2026-04-10 02:59 688K
20260410T00Z_MSC_RDPS_WindDir_IsbL-0800_RLatLon0.09_PT037H.grib2 2026-04-10 02:59 755K
20260410T00Z_MSC_RDPS_WindDir_IsbL-0850_RLatLon0.09_PT037H.grib2 2026-04-10 02:59 831K
20260410T00Z_MSC_RDPS_WindDir_IsbL-0875_RLatLon0.09_PT037H.grib2 2026-04-10 02:59 860K
20260410T00Z_MSC_RDPS_WindDir_IsbL-0900_RLatLon0.09_PT037H.grib2 2026-04-10 02:59 878K
20260410T00Z_MSC_RDPS_WindDir_IsbL-0925_RLatLon0.09_PT037H.grib2 2026-04-10 02:59 890K
20260410T00Z_MSC_RDPS_WindDir_IsbL-0950_RLatLon0.09_PT037H.grib2 2026-04-10 02:59 895K
20260410T00Z_MSC_RDPS_WindDir_IsbL-0970_RLatLon0.09_PT037H.grib2 2026-04-10 02:59 902K
20260410T00Z_MSC_RDPS_WindDir_IsbL-0985_RLatLon0.09_PT037H.grib2 2026-04-10 02:59 912K
20260410T00Z_MSC_RDPS_WindDir_IsbL-1000_RLatLon0.09_PT037H.grib2 2026-04-10 02:59 927K
20260410T00Z_MSC_RDPS_WindDir_IsbL-1015_RLatLon0.09_PT037H.grib2 2026-04-10 02:59 944K
20260410T00Z_MSC_RDPS_WindGust-Max_AGL-10m_RLatLon0.09_PT037H.grib2 2026-04-10 02:59 1.0M
20260410T00Z_MSC_RDPS_WindGust-Min_AGL-10m_RLatLon0.09_PT037H.grib2 2026-04-10 02:59 1.0M
20260410T00Z_MSC_RDPS_WindGust_AGL-10m_RLatLon0.09_PT037H.grib2 2026-04-10 02:59 1.0M
20260410T00Z_MSC_RDPS_WindSpeed_AGL-10m_RLatLon0.09_PT037H.grib2 2026-04-10 02:59 837K
20260410T00Z_MSC_RDPS_WindSpeed_AGL-120m_RLatLon0.09_PT037H.grib2 2026-04-10 02:59 542K
20260410T00Z_MSC_RDPS_WindSpeed_AGL-40m_RLatLon0.09_PT037H.grib2 2026-04-10 02:59 542K
20260410T00Z_MSC_RDPS_WindSpeed_AGL-80m_RLatLon0.09_PT037H.grib2 2026-04-10 02:59 541K
20260410T00Z_MSC_RDPS_WindSpeed_IsbL-0001_RLatLon0.09_PT037H.grib2 2026-04-10 02:59 295K
20260410T00Z_MSC_RDPS_WindSpeed_IsbL-0005_RLatLon0.09_PT037H.grib2 2026-04-10 02:59 315K
20260410T00Z_MSC_RDPS_WindSpeed_IsbL-0010_RLatLon0.09_PT037H.grib2 2026-04-10 02:59 359K
20260410T00Z_MSC_RDPS_WindSpeed_IsbL-0020_RLatLon0.09_PT037H.grib2 2026-04-10 02:59 349K
20260410T00Z_MSC_RDPS_WindSpeed_IsbL-0030_RLatLon0.09_PT037H.grib2 2026-04-10 02:59 346K
20260410T00Z_MSC_RDPS_WindSpeed_IsbL-0050_RLatLon0.09_PT037H.grib2 2026-04-10 02:59 378K
20260410T00Z_MSC_RDPS_WindSpeed_IsbL-0100_RLatLon0.09_PT037H.grib2 2026-04-10 02:59 486K
20260410T00Z_MSC_RDPS_WindSpeed_IsbL-0150_RLatLon0.09_PT037H.grib2 2026-04-10 02:59 470K
20260410T00Z_MSC_RDPS_WindSpeed_IsbL-0175_RLatLon0.09_PT037H.grib2 2026-04-10 02:59 396K
20260410T00Z_MSC_RDPS_WindSpeed_IsbL-0200_RLatLon0.09_PT037H.grib2 2026-04-10 02:59 413K
20260410T00Z_MSC_RDPS_WindSpeed_IsbL-0225_RLatLon0.09_PT037H.grib2 2026-04-10 02:59 422K
20260410T00Z_MSC_RDPS_WindSpeed_IsbL-0250_RLatLon0.09_PT037H.grib2 2026-04-10 02:59 444K
20260410T00Z_MSC_RDPS_WindSpeed_IsbL-0275_RLatLon0.09_PT037H.grib2 2026-04-10 02:59 460K
20260410T00Z_MSC_RDPS_WindSpeed_IsbL-0300_RLatLon0.09_PT037H.grib2 2026-04-10 02:59 455K
20260410T00Z_MSC_RDPS_WindSpeed_IsbL-0350_RLatLon0.09_PT037H.grib2 2026-04-10 02:59 468K
20260410T00Z_MSC_RDPS_WindSpeed_IsbL-0400_RLatLon0.09_PT037H.grib2 2026-04-10 02:59 454K
20260410T00Z_MSC_RDPS_WindSpeed_IsbL-0450_RLatLon0.09_PT037H.grib2 2026-04-10 02:59 457K
20260410T00Z_MSC_RDPS_WindSpeed_IsbL-0500_RLatLon0.09_PT037H.grib2 2026-04-10 02:59 458K
20260410T00Z_MSC_RDPS_WindSpeed_IsbL-0550_RLatLon0.09_PT037H.grib2 2026-04-10 02:59 579K
20260410T00Z_MSC_RDPS_WindSpeed_IsbL-0600_RLatLon0.09_PT037H.grib2 2026-04-10 02:59 592K
20260410T00Z_MSC_RDPS_WindSpeed_IsbL-0650_RLatLon0.09_PT037H.grib2 2026-04-10 02:59 655K
20260410T00Z_MSC_RDPS_WindSpeed_IsbL-0700_RLatLon0.09_PT037H.grib2 2026-04-10 02:59 680K
20260410T00Z_MSC_RDPS_WindSpeed_IsbL-0750_RLatLon0.09_PT037H.grib2 2026-04-10 02:59 711K
20260410T00Z_MSC_RDPS_WindSpeed_IsbL-0800_RLatLon0.09_PT037H.grib2 2026-04-10 02:59 763K
20260410T00Z_MSC_RDPS_WindSpeed_IsbL-0850_RLatLon0.09_PT037H.grib2 2026-04-10 02:59 823K
20260410T00Z_MSC_RDPS_WindSpeed_IsbL-0875_RLatLon0.09_PT037H.grib2 2026-04-10 02:59 844K
20260410T00Z_MSC_RDPS_WindSpeed_IsbL-0900_RLatLon0.09_PT037H.grib2 2026-04-10 02:59 855K
20260410T00Z_MSC_RDPS_WindSpeed_IsbL-0925_RLatLon0.09_PT037H.grib2 2026-04-10 02:59 867K
20260410T00Z_MSC_RDPS_WindSpeed_IsbL-0950_RLatLon0.09_PT037H.grib2 2026-04-10 02:59 869K
20260410T00Z_MSC_RDPS_WindSpeed_IsbL-0970_RLatLon0.09_PT037H.grib2 2026-04-10 02:59 866K
20260410T00Z_MSC_RDPS_WindSpeed_IsbL-0985_RLatLon0.09_PT037H.grib2 2026-04-10 02:59 858K
20260410T00Z_MSC_RDPS_WindSpeed_IsbL-1000_RLatLon0.09_PT037H.grib2 2026-04-10 02:59 852K
20260410T00Z_MSC_RDPS_WindSpeed_IsbL-1015_RLatLon0.09_PT037H.grib2 2026-04-10 02:59 840K
20260410T00Z_MSC_RDPS_WindU_AGL-10m_RLatLon0.09_PT037H.grib2 2026-04-10 02:59 431K
20260410T00Z_MSC_RDPS_WindU_AGL-120m_RLatLon0.09_PT037H.grib2 2026-04-10 02:59 537K
20260410T00Z_MSC_RDPS_WindU_AGL-40m_RLatLon0.09_PT037H.grib2 2026-04-10 02:59 539K
20260410T00Z_MSC_RDPS_WindU_AGL-80m_RLatLon0.09_PT037H.grib2 2026-04-10 02:59 538K
20260410T00Z_MSC_RDPS_WindU_IsbL-0001_RLatLon0.09_PT037H.grib2 2026-04-10 02:59 267K
20260410T00Z_MSC_RDPS_WindU_IsbL-0005_RLatLon0.09_PT037H.grib2 2026-04-10 02:59 242K
20260410T00Z_MSC_RDPS_WindU_IsbL-0010_RLatLon0.09_PT037H.grib2 2026-04-10 02:59 250K
20260410T00Z_MSC_RDPS_WindU_IsbL-0020_RLatLon0.09_PT037H.grib2 2026-04-10 02:59 344K
20260410T00Z_MSC_RDPS_WindU_IsbL-0030_RLatLon0.09_PT037H.grib2 2026-04-10 02:59 344K
20260410T00Z_MSC_RDPS_WindU_IsbL-0050_RLatLon0.09_PT037H.grib2 2026-04-10 02:59 285K
20260410T00Z_MSC_RDPS_WindU_IsbL-0100_RLatLon0.09_PT037H.grib2 2026-04-10 02:59 344K
20260410T00Z_MSC_RDPS_WindU_IsbL-0150_RLatLon0.09_PT037H.grib2 2026-04-10 02:59 386K
20260410T00Z_MSC_RDPS_WindU_IsbL-0175_RLatLon0.09_PT037H.grib2 2026-04-10 02:59 412K
20260410T00Z_MSC_RDPS_WindU_IsbL-0200_RLatLon0.09_PT037H.grib2 2026-04-10 02:59 427K
20260410T00Z_MSC_RDPS_WindU_IsbL-0225_RLatLon0.09_PT037H.grib2 2026-04-10 02:59 336K
20260410T00Z_MSC_RDPS_WindU_IsbL-0250_RLatLon0.09_PT037H.grib2 2026-04-10 02:59 338K
20260410T00Z_MSC_RDPS_WindU_IsbL-0275_RLatLon0.09_PT037H.grib2 2026-04-10 02:59 350K
20260410T00Z_MSC_RDPS_WindU_IsbL-0300_RLatLon0.09_PT037H.grib2 2026-04-10 02:59 347K
20260410T00Z_MSC_RDPS_WindU_IsbL-0350_RLatLon0.09_PT037H.grib2 2026-04-10 02:59 357K
20260410T00Z_MSC_RDPS_WindU_IsbL-0400_RLatLon0.09_PT037H.grib2 2026-04-10 02:59 360K
20260410T00Z_MSC_RDPS_WindU_IsbL-0450_RLatLon0.09_PT037H.grib2 2026-04-10 02:59 466K
20260410T00Z_MSC_RDPS_WindU_IsbL-0500_RLatLon0.09_PT037H.grib2 2026-04-10 02:59 466K
20260410T00Z_MSC_RDPS_WindU_IsbL-0550_RLatLon0.09_PT037H.grib2 2026-04-10 02:59 469K
20260410T00Z_MSC_RDPS_WindU_IsbL-0600_RLatLon0.09_PT037H.grib2 2026-04-10 02:59 480K
20260410T00Z_MSC_RDPS_WindU_IsbL-0650_RLatLon0.09_PT037H.grib2 2026-04-10 02:59 498K
20260410T00Z_MSC_RDPS_WindU_IsbL-0700_RLatLon0.09_PT037H.grib2 2026-04-10 02:59 518K
20260410T00Z_MSC_RDPS_WindU_IsbL-0750_RLatLon0.09_PT037H.grib2 2026-04-10 02:59 531K
20260410T00Z_MSC_RDPS_WindU_IsbL-0800_RLatLon0.09_PT037H.grib2 2026-04-10 02:59 576K
20260410T00Z_MSC_RDPS_WindU_IsbL-0850_RLatLon0.09_PT037H.grib2 2026-04-10 02:59 630K
20260410T00Z_MSC_RDPS_WindU_IsbL-0875_RLatLon0.09_PT037H.grib2 2026-04-10 02:59 648K
20260410T00Z_MSC_RDPS_WindU_IsbL-0900_RLatLon0.09_PT037H.grib2 2026-04-10 02:59 657K
20260410T00Z_MSC_RDPS_WindU_IsbL-0925_RLatLon0.09_PT037H.grib2 2026-04-10 02:59 664K
20260410T00Z_MSC_RDPS_WindU_IsbL-0950_RLatLon0.09_PT037H.grib2 2026-04-10 02:59 663K
20260410T00Z_MSC_RDPS_WindU_IsbL-0970_RLatLon0.09_PT037H.grib2 2026-04-10 02:59 661K
20260410T00Z_MSC_RDPS_WindU_IsbL-0985_RLatLon0.09_PT037H.grib2 2026-04-10 02:59 795K
20260410T00Z_MSC_RDPS_WindU_IsbL-1000_RLatLon0.09_PT037H.grib2 2026-04-10 02:59 789K
20260410T00Z_MSC_RDPS_WindU_IsbL-1015_RLatLon0.09_PT037H.grib2 2026-04-10 02:59 781K
20260410T00Z_MSC_RDPS_WindV_AGL-10m_RLatLon0.09_PT037H.grib2 2026-04-10 02:59 431K
20260410T00Z_MSC_RDPS_WindV_AGL-120m_RLatLon0.09_PT037H.grib2 2026-04-10 02:59 420K
20260410T00Z_MSC_RDPS_WindV_AGL-40m_RLatLon0.09_PT037H.grib2 2026-04-10 02:59 538K
20260410T00Z_MSC_RDPS_WindV_AGL-80m_RLatLon0.09_PT037H.grib2 2026-04-10 02:59 421K
20260410T00Z_MSC_RDPS_WindV_IsbL-0001_RLatLon0.09_PT037H.grib2 2026-04-10 02:59 252K
20260410T00Z_MSC_RDPS_WindV_IsbL-0005_RLatLon0.09_PT037H.grib2 2026-04-10 02:59 240K
20260410T00Z_MSC_RDPS_WindV_IsbL-0010_RLatLon0.09_PT037H.grib2 2026-04-10 02:59 321K
20260410T00Z_MSC_RDPS_WindV_IsbL-0020_RLatLon0.09_PT037H.grib2 2026-04-10 02:59 340K
20260410T00Z_MSC_RDPS_WindV_IsbL-0030_RLatLon0.09_PT037H.grib2 2026-04-10 02:59 377K
20260410T00Z_MSC_RDPS_WindV_IsbL-0050_RLatLon0.09_PT037H.grib2 2026-04-10 02:59 369K
20260410T00Z_MSC_RDPS_WindV_IsbL-0100_RLatLon0.09_PT037H.grib2 2026-04-10 02:59 336K
20260410T00Z_MSC_RDPS_WindV_IsbL-0150_RLatLon0.09_PT037H.grib2 2026-04-10 02:59 383K
20260410T00Z_MSC_RDPS_WindV_IsbL-0175_RLatLon0.09_PT037H.grib2 2026-04-10 02:59 410K
20260410T00Z_MSC_RDPS_WindV_IsbL-0200_RLatLon0.09_PT037H.grib2 2026-04-10 02:59 331K
20260410T00Z_MSC_RDPS_WindV_IsbL-0225_RLatLon0.09_PT037H.grib2 2026-04-10 02:59 334K
20260410T00Z_MSC_RDPS_WindV_IsbL-0250_RLatLon0.09_PT037H.grib2 2026-04-10 02:59 335K
20260410T00Z_MSC_RDPS_WindV_IsbL-0275_RLatLon0.09_PT037H.grib2 2026-04-10 02:59 348K
20260410T00Z_MSC_RDPS_WindV_IsbL-0300_RLatLon0.09_PT037H.grib2 2026-04-10 02:59 344K
20260410T00Z_MSC_RDPS_WindV_IsbL-0350_RLatLon0.09_PT037H.grib2 2026-04-10 02:59 352K
20260410T00Z_MSC_RDPS_WindV_IsbL-0400_RLatLon0.09_PT037H.grib2 2026-04-10 02:59 356K
20260410T00Z_MSC_RDPS_WindV_IsbL-0450_RLatLon0.09_PT037H.grib2 2026-04-10 02:59 462K
20260410T00Z_MSC_RDPS_WindV_IsbL-0500_RLatLon0.09_PT037H.grib2 2026-04-10 02:59 462K
20260410T00Z_MSC_RDPS_WindV_IsbL-0550_RLatLon0.09_PT037H.grib2 2026-04-10 02:59 465K
20260410T00Z_MSC_RDPS_WindV_IsbL-0600_RLatLon0.09_PT037H.grib2 2026-04-10 02:59 475K
20260410T00Z_MSC_RDPS_WindV_IsbL-0650_RLatLon0.09_PT037H.grib2 2026-04-10 02:59 476K
20260410T00Z_MSC_RDPS_WindV_IsbL-0700_RLatLon0.09_PT037H.grib2 2026-04-10 02:59 498K
20260410T00Z_MSC_RDPS_WindV_IsbL-0750_RLatLon0.09_PT037H.grib2 2026-04-10 02:59 526K
20260410T00Z_MSC_RDPS_WindV_IsbL-0800_RLatLon0.09_PT037H.grib2 2026-04-10 02:59 572K
20260410T00Z_MSC_RDPS_WindV_IsbL-0850_RLatLon0.09_PT037H.grib2 2026-04-10 02:59 627K
20260410T00Z_MSC_RDPS_WindV_IsbL-0875_RLatLon0.09_PT037H.grib2 2026-04-10 02:59 646K
20260410T00Z_MSC_RDPS_WindV_IsbL-0900_RLatLon0.09_PT037H.grib2 2026-04-10 02:59 655K
20260410T00Z_MSC_RDPS_WindV_IsbL-0925_RLatLon0.09_PT037H.grib2 2026-04-10 02:59 661K
20260410T00Z_MSC_RDPS_WindV_IsbL-0950_RLatLon0.09_PT037H.grib2 2026-04-10 02:59 660K
20260410T00Z_MSC_RDPS_WindV_IsbL-0970_RLatLon0.09_PT037H.grib2 2026-04-10 02:59 658K
20260410T00Z_MSC_RDPS_WindV_IsbL-0985_RLatLon0.09_PT037H.grib2 2026-04-10 02:59 654K
20260410T00Z_MSC_RDPS_WindV_IsbL-1000_RLatLon0.09_PT037H.grib2 2026-04-10 02:59 789K
20260410T00Z_MSC_RDPS_WindV_IsbL-1015_RLatLon0.09_PT037H.grib2 2026-04-10 02:59 780K